Location: Unspecified
(0.0000°N, 0.0000°E)
Time: 13:58:23
(UTC+02:00)

Ariane H10 - Visible Passes

Search period start: 28 March 2017 00:00
Search period end: 07 April 2017 00:00
Orbit: 488 x 34768 km, 6.9° (Epoch: 26 March)

Date Brightness Start Highest point End Pass type
(mag) Time Alt. Az. Time Alt. Az. Time Alt. Az.
28 Mar 5.8 20:00:02 10° W 21:33:17 32° W 05:18:54 10° ENE visible
29 Mar 8.7 16:01:25 10° W 18:47:51 83° S 01:11:42 72° WSW visible
30 Mar 6.6 12:23:37 10° WNW 20:10:35 58° ESE 21:46:07 28° E visible
31 Mar 11.5 20:01:00 10° W 21:32:32 31° W 01:18:45 10° W visible
01 Apr 6.0 05:17:14 17° ENE 05:17:14 17° ENE 05:17:59 10° ENE visible
01 Apr 8.6 16:00:44 10° W 17:06:07 85° SSW 01:11:49 71° WSW visible
02 Apr 6.7 12:22:44 10° WNW 20:10:13 60° ESE 21:46:15 29° E visible
03 Apr 11.7 20:02:13 10° W 21:31:50 29° W 01:04:15 10° W visible
04 Apr 6.1 05:16:36 15° ENE 05:16:36 15° ENE 05:17:07 10° ENE visible
04 Apr 8.6 16:00:08 10° W 17:15:24 84° SSW 01:12:00 70° WSW visible
05 Apr 6.7 12:21:55 10° WNW 20:09:56 61° ESE 21:46:27 29° E visible
